COSMOS 1275 DEB, 42105

Orbit data source: Space-Track

COSMOS 1275 DEB, 42105 is space debris in LEO originally from a launch on Thu, 04 Jun 1981 UTC launched from the Plesetsk Missile And Space Complex (PKMTR). Debris objects in space refer to the collection of defunct objects orbiting the Earth. Examples of debris include non-operational satellites, rocket bodies, and fragments generated from explosions, collisions, or faulty payload assembly.

Loading next visibility...
Identifier
42105, 1981-053PR
Orbit
LEO
Country
Flag of CISCIS
Related business
Manufacturer
Unknown
Mission
Spacecraft
Bus & Motor
Unknown
Mass
Unknown
Launch date (UTC)
1981-06-04 (45 years ago)
Launch vehicle
Unknown
Launch site
Plesetsk Missile And Space Complex (PKMTR)
Object type
Payload
Rocket body
Debris
Shape & HBR
Unknown shape, 1.1 m
Radar Cross Section
Small (<0.1 m²)

Expand to show TLE details & history
Last TLE update: 5 days ago

TLE from 5 days ago
0 COSMOS 1275 DEB
1 42105U 81053PR  26167.88774311  .00000985  00000-0  11160-2 0  9993
2 42105  82.9765  33.6671 0178373  43.4999 334.4245 13.62813393264831
Epoch: 2026-06-16T21:18Z
TLE epoch observation values (Epoch: 2026-06-16T21:18:21.004Z)
Latitude
16.87874°
Longitude
171.05728°
Altitude
909.056 km
Speed
7.458 km/s
True Right ascension
02h 23m 11s
True Declination
16° 47' 08"
Sunlit
Object was in daylight at epoch
Visualization orbit readout
Latitude
Unknown
Longitude
Unknown
Altitude
Unknown
Speed
Unknown
Apparent Right ascension
Unknown
Apparent Declination
Unknown
Sunlit
N/A
Visualization observer readout
Local Sidereal Time
02:46:44
Azimuth
Unknown
Elevation
Unknown
Doppler factor
Unknown
Orbital elements
Apogee altitude
1,154.658 km
Perigee altitude
890.638 km
Semi-major axis
7,400.785 km
Eccentricity
0.01784
Inclination
82.9765°
RAAN
33.6671°
Arg. of periapsis
43.4999°
True anomaly
333.52404°
Mean anomaly
334.4245°
Eccentric anomaly
333.9761°
Mean motion
3.409 °/min
Orbital period
105.6 mins
BSTAR
0.001116
Loading maneuver chart data...
Computing Atmospheric mass density...

Documentation

Showing up to 5 results
|